Time,TemperatureF,DewpointF,PressureIn,WindDirection,WindDirectionDegrees,WindSpeedMPH,WindSpeedGustMPH,Humidity,HourlyPrecipIn,Conditions,Clouds,dailyrainin,SoftwareType,DateUTC
2013-01-30 00:00:00,19.9,16.4,29.92,NNW,346,14.0,14.0,86,0.00,,,0.00,Wunderground v.1.15,2013-01-30 06:00:00,
2013-01-30 00:10:00,19.7,15.9,29.92,North,355,14.0,14.0,85,0.00,,,0.00,Wunderground v.1.15,2013-01-30 06:10:00,
2013-01-30 00:15:00,19.7,15.9,29.92,NNW,339,15.0,15.0,85,0.00,,,0.00,Wunderground v.1.15,2013-01-30 06:15:00,
2013-01-30 00:20:00,19.7,15.9,29.92,NNW,340,14.0,14.0,85,0.00,,,0.00,Wunderground v.1.15,2013-01-30 06:20:00,
2013-01-30 00:30:00,19.0,15.2,29.92,NNW,333,17.0,18.0,85,0.00,,,0.00,Wunderground v.1.15,2013-01-30 06:30:00,
2013-01-30 00:40:00,19.1,15.1,29.91,NNW,344,16.0,19.0,84,0.00,,,0.00,Wunderground v.1.15,2013-01-30 06:40:00,
2013-01-30 00:50:00,19.1,15.1,29.91,NNW,327,17.0,17.0,84,0.00,,,0.00,Wunderground v.1.15,2013-01-30 06:50:00,
2013-01-30 01:00:00,19.1,14.8,29.91,NNW,342,15.0,15.0,83,0.00,,,0.00,Wunderground v.1.15,2013-01-30 07:00:00,
2013-01-30 01:10:00,18.6,14.3,29.91,NNW,328,17.0,17.0,83,0.00,,,0.00,Wunderground v.1.15,2013-01-30 07:10:00,
2013-01-30 01:20:00,18.6,14.3,29.91,NW,322,14.0,18.0,83,0.00,,,0.00,Wunderground v.1.15,2013-01-30 07:20:00,
2013-01-30 01:30:00,18.8,14.8,29.91,NNW,348,15.0,15.0,84,0.00,,,0.00,Wunderground v.1.15,2013-01-30 07:30:00,
2013-01-30 01:35:00,19.0,15.0,29.91,NNW,331,15.0,15.0,84,0.00,,,0.00,Wunderground v.1.15,2013-01-30 07:35:00,
2013-01-30 01:45:00,19.1,15.3,29.91,NW,315,15.0,21.0,85,0.00,,,0.00,Wunderground v.1.15,2013-01-30 07:45:00,
2013-01-30 01:55:00,19.1,15.3,29.91,NNW,340,14.0,16.0,85,0.00,,,0.00,Wunderground v.1.15,2013-01-30 07:55:00,
2013-01-30 02:05:00,19.0,15.5,29.92,NNW,338,16.0,25.0,86,0.00,,,0.00,Wunderground v.1.15,2013-01-30 08:05:00,
2013-01-30 02:10:00,19.0,15.8,29.92,NNW,336,15.0,25.0,87,0.00,,,0.00,Wunderground v.1.15,2013-01-30 08:10:00,
2013-01-30 02:20:00,19.1,15.6,29.92,North,355,16.0,16.0,86,0.00,,,0.00,Wunderground v.1.15,2013-01-30 08:20:00,
2013-01-30 02:30:00,19.1,15.3,29.92,NNW,329,16.0,16.0,85,0.00,,,0.00,Wunderground v.1.15,2013-01-30 08:30:00,
2013-01-30 02:40:00,19.1,15.1,29.92,NW,315,17.0,25.0,84,0.00,,,0.00,Wunderground v.1.15,2013-01-30 08:40:00,
2013-01-30 02:50:00,19.2,14.9,29.93,NW,320,15.0,25.0,83,0.00,,,0.00,Wunderground v.1.15,2013-01-30 08:50:00,
2013-01-30 03:00:00,19.1,14.8,29.93,North,11,14.0,25.0,83,0.00,,,0.00,Wunderground v.1.15,2013-01-30 09:00:00,
2013-01-30 03:05:00,19.1,13.9,29.93,North,355,17.0,27.0,80,0.00,,,0.00,Wunderground v.1.15,2013-01-30 09:05:00,
2013-01-30 03:15:00,19.0,14.1,29.93,North,9,16.0,25.0,81,0.00,,,0.00,Wunderground v.1.15,2013-01-30 09:15:00,
2013-01-30 03:20:00,19.0,14.1,29.94,NW,324,14.0,25.0,81,0.00,,,0.00,Wunderground v.1.15,2013-01-30 09:20:00,
2013-01-30 03:30:00,18.9,14.3,29.94,NNW,329,14.0,25.0,82,0.00,,,0.00,Wunderground v.1.15,2013-01-30 09:30:00,
2013-01-30 03:40:00,19.0,14.1,29.94,NNW,348,15.0,15.0,81,0.00,,,0.00,Wunderground v.1.15,2013-01-30 09:40:00,
2013-01-30 03:50:00,19.0,14.1,29.95,NNW,346,15.0,25.0,81,0.00,,,0.00,Wunderground v.1.15,2013-01-30 09:50:00,
2013-01-30 04:00:00,19.1,14.2,29.95,North,355,14.0,14.0,81,0.00,,,0.00,Wunderground v.1.15,2013-01-30 10:00:00,
2013-01-30 04:10:00,19.2,14.0,29.95,North,360,16.0,16.0,80,0.00,,,0.00,Wunderground v.1.15,2013-01-30 10:10:00,
2013-01-30 04:15:00,19.3,14.1,29.95,North,360,15.0,25.0,80,0.00,,,0.00,Wunderground v.1.15,2013-01-30 10:15:00,
2013-01-30 04:20:00,19.3,14.1,29.95,North,5,14.0,14.0,80,0.00,,,0.00,Wunderground v.1.15,2013-01-30 10:20:00,
2013-01-30 04:30:00,19.2,14.3,29.95,North,5,13.0,13.0,81,0.00,,,0.00,Wunderground v.1.15,2013-01-30 10:30:00,
2013-01-30 04:40:00,19.3,14.1,29.95,NNW,348,14.0,14.0,80,0.00,,,0.00,Wunderground v.1.15,2013-01-30 10:40:00,
2013-01-30 04:50:00,19.3,14.4,29.95,NW,321,12.0,25.0,81,0.00,,,0.00,Wunderground v.1.15,2013-01-30 10:50:00,
2013-01-30 05:00:00,19.2,14.6,29.95,North,360,12.0,25.0,82,0.00,,,0.00,Wunderground v.1.15,2013-01-30 11:00:00,
2013-01-30 05:10:00,19.3,14.7,29.95,NW,317,13.0,25.0,82,0.00,,,0.00,Wunderground v.1.15,2013-01-30 11:10:00,
2013-01-30 05:15:00,19.3,15.0,29.95,North,355,13.0,25.0,83,0.00,,,0.00,Wunderground v.1.15,2013-01-30 11:15:00,
2013-01-30 05:25:00,19.3,15.0,29.95,NNW,340,13.0,25.0,83,0.00,,,0.00,Wunderground v.1.15,2013-01-30 11:25:00,
2013-01-30 05:30:00,19.3,14.4,29.95,NNW,329,14.0,25.0,81,0.00,,,0.00,Wunderground v.1.15,2013-01-30 11:30:00,
2013-01-30 05:40:00,19.4,13.9,29.95,North,5,15.0,25.0,79,0.00,,,0.00,Wunderground v.1.15,2013-01-30 11:40:00,
2013-01-30 05:50:00,19.2,13.2,29.95,NW,324,15.0,15.0,77,0.00,,,0.00,Wunderground v.1.15,2013-01-30 11:50:00,
2013-01-30 06:00:00,19.1,12.8,29.95,North,5,16.0,16.0,76,0.00,,,0.00,Wunderground v.1.15,2013-01-30 12:00:00,
2013-01-30 06:10:00,18.8,12.8,29.95,NNW,331,14.0,14.0,77,0.00,,,0.00,Wunderground v.1.15,2013-01-30 12:10:00,
2013-01-30 06:15:00,18.7,12.7,29.96,North,355,14.0,16.0,77,0.00,,,0.00,Wunderground v.1.15,2013-01-30 12:15:00,
2013-01-30 06:25:00,18.4,12.7,29.96,North,355,12.0,13.0,78,0.00,,,0.00,Wunderground v.1.15,2013-01-30 12:25:00,
2013-01-30 06:30:00,18.3,12.6,29.96,NNW,340,11.0,11.0,78,0.00,,,0.00,Wunderground v.1.15,2013-01-30 12:30:00,
2013-01-30 06:40:00,18.2,13.1,29.96,NW,326,9.0,12.0,80,0.00,,,0.00,Wunderground v.1.15,2013-01-30 12:40:00,
2013-01-30 06:50:00,18.2,13.3,29.97,NNW,336,12.0,15.0,81,0.00,,,0.00,Wunderground v.1.15,2013-01-30 12:50:00,
2013-01-30 07:00:00,18.2,13.6,29.97,NNW,346,11.0,11.0,82,0.00,,,0.00,Wunderground v.1.15,2013-01-30 13:00:00,
2013-01-30 07:10:00,18.2,13.9,29.97,NNW,346,10.0,10.0,83,0.00,,,0.00,Wunderground v.1.15,2013-01-30 13:10:00,
2013-01-30 07:20:00,18.2,14.2,29.97,NNW,343,10.0,13.0,84,0.00,,,0.00,Wunderground v.1.15,2013-01-30 13:20:00,
2013-01-30 07:25:00,18.2,14.4,29.97,North,355,10.0,13.0,85,0.00,,,0.00,Wunderground v.1.15,2013-01-30 13:25:00,
2013-01-30 07:35:00,18.1,14.4,29.97,North,360,11.0,17.0,85,0.00,,,0.00,Wunderground v.1.15,2013-01-30 13:35:00,
2013-01-30 07:40:00,18.0,14.3,29.98,NNW,335,12.0,12.0,85,0.00,,,0.00,Wunderground v.1.15,2013-01-30 13:40:00,
2013-01-30 07:50:00,17.9,14.2,29.97,NNW,348,11.0,14.0,85,0.00,,,0.00,Wunderground v.1.15,2013-01-30 13:50:00,
2013-01-30 08:00:00,17.2,13.2,29.98,NNW,327,13.0,15.0,84,0.00,,,0.00,Wunderground v.1.15,2013-01-30 14:00:00,
2013-01-30 08:10:00,16.8,12.5,29.98,NW,309,14.0,28.0,83,0.00,,,0.00,Wunderground v.1.15,2013-01-30 14:10:00,
2013-01-30 08:20:00,17.0,12.7,29.98,North,355,12.0,28.0,83,0.00,,,0.00,Wunderground v.1.15,2013-01-30 14:20:00,
2013-01-30 08:25:00,17.0,12.7,29.98,NW,313,12.0,28.0,83,0.00,,,0.00,Wunderground v.1.15,2013-01-30 14:25:00,
2013-01-30 08:35:00,16.9,12.6,29.98,NNW,336,11.0,28.0,83,0.00,,,0.00,Wunderground v.1.15,2013-01-30 14:35:00,
2013-01-30 08:40:00,16.8,12.8,29.98,NNW,333,11.0,11.0,84,0.00,,,0.00,Wunderground v.1.15,2013-01-30 14:40:00,
2013-01-30 08:50:00,16.3,12.3,29.99,WNW,291,10.0,28.0,84,0.00,,,0.00,Wunderground v.1.15,2013-01-30 14:50:00,
2013-01-30 09:00:00,16.1,12.1,29.99,NW,325,10.0,10.0,84,0.00,,,0.00,Wunderground v.1.15,2013-01-30 15:00:00,
2013-01-30 09:10:00,16.0,12.0,29.98,NW,325,9.0,28.0,84,0.00,,,0.00,Wunderground v.1.15,2013-01-30 15:10:00,
2013-01-30 09:20:00,15.7,11.7,29.98,NNW,334,9.0,28.0,84,0.00,,,0.00,Wunderground v.1.15,2013-01-30 15:20:00,
2013-01-30 09:25:00,15.7,11.7,29.98,NW,309,9.0,28.0,84,0.00,,,0.00,Wunderground v.1.15,2013-01-30 15:25:00,
2013-01-30 09:35:00,15.7,11.7,29.98,NNW,346,9.0,28.0,84,0.00,,,0.00,Wunderground v.1.15,2013-01-30 15:35:00,
2013-01-30 09:40:00,15.6,11.4,29.98,NW,323,9.0,28.0,83,0.00,,,0.00,Wunderground v.1.15,2013-01-30 15:40:00,
2013-01-30 09:50:00,14.7,10.2,29.98,WNW,288,11.0,28.0,82,0.00,,,0.00,Wunderground v.1.15,2013-01-30 15:50:00,
2013-01-30 10:00:00,14.8,10.0,29.99,NW,313,12.0,28.0,81,0.00,,,0.00,Wunderground v.1.15,2013-01-30 16:00:00,
2013-01-30 10:10:00,14.5,9.7,29.99,WNW,302,13.0,13.0,81,0.00,,,0.00,Wunderground v.1.15,2013-01-30 16:10:00,
2013-01-30 10:20:00,14.2,9.4,29.99,NW,321,15.0,28.0,81,0.00,,,0.00,Wunderground v.1.15,2013-01-30 16:20:00,
2013-01-30 10:25:00,14.1,9.3,29.99,WNW,297,15.0,28.0,81,0.00,,,0.00,Wunderground v.1.15,2013-01-30 16:25:00,
2013-01-30 10:30:00,14.4,9.6,30.00,NNW,338,13.0,13.0,81,0.00,,,0.00,Wunderground v.1.15,2013-01-30 16:30:00,
2013-01-30 10:40:00,14.5,9.7,30.00,NNE,14,11.0,11.0,81,0.00,,,0.00,Wunderground v.1.15,2013-01-30 16:40:00,
2013-01-30 10:50:00,15.0,10.2,30.00,West,273,10.0,28.0,81,0.00,,,0.00,Wunderground v.1.15,2013-01-30 16:50:00,
2013-01-30 11:00:00,14.9,10.1,30.00,WNW,300,12.0,28.0,81,0.00,,,0.00,Wunderground v.1.15,2013-01-30 17:00:00,
2013-01-30 11:05:00,14.8,9.7,30.00,WNW,298,13.0,28.0,80,0.00,,,0.00,Wunderground v.1.15,2013-01-30 17:05:00,
2013-01-30 11:15:00,14.9,9.8,30.00,WNW,296,11.0,28.0,80,0.00,,,0.00,Wunderground v.1.15,2013-01-30 17:15:00,
2013-01-30 11:25:00,14.8,9.7,30.00,NW,306,10.0,15.0,80,0.00,,,0.00,Wunderground v.1.15,2013-01-30 17:25:00,
2013-01-30 11:35:00,14.8,9.7,30.00,WNW,294,12.0,28.0,80,0.00,,,0.00,Wunderground v.1.15,2013-01-30 17:35:00,
2013-01-30 11:40:00,14.7,9.4,30.00,WNW,292,11.0,28.0,79,0.00,,,0.00,Wunderground v.1.15,2013-01-30 17:40:00,
2013-01-30 11:50:00,14.9,9.6,30.00,NW,316,12.0,12.0,79,0.00,,,0.00,Wunderground v.1.15,2013-01-30 17:50:00,
2013-01-30 12:00:00,15.2,9.6,30.00,WNW,300,11.0,14.0,78,0.00,,,0.00,Wunderground v.1.15,2013-01-30 18:00:00,
2013-01-30 12:10:00,15.7,10.3,30.00,NW,304,10.0,10.0,79,0.00,,,0.00,Wunderground v.1.15,2013-01-30 18:10:00,
2013-01-30 12:20:00,16.0,10.3,30.00,NW,325,11.0,11.0,78,0.00,,,0.00,Wunderground v.1.15,2013-01-30 18:20:00,
2013-01-30 12:25:00,16.0,10.3,30.00,NW,315,11.0,11.0,78,0.00,,,0.00,Wunderground v.1.15,2013-01-30 18:25:00,
2013-01-30 12:35:00,16.3,10.6,30.00,NNW,347,11.0,14.0,78,0.00,,,0.00,Wunderground v.1.15,2013-01-30 18:35:00,
2013-01-30 12:45:00,16.1,10.4,29.99,NW,320,11.0,11.0,78,0.00,,,0.00,Wunderground v.1.15,2013-01-30 18:45:00,
2013-01-30 12:50:00,16.4,10.7,29.99,NW,312,11.0,11.0,78,0.00,,,0.00,Wunderground v.1.15,2013-01-30 18:50:00,
2013-01-30 13:00:00,16.7,10.7,29.99,NW,318,11.0,14.0,77,0.00,,,0.00,Wunderground v.1.15,2013-01-30 19:00:00,
2013-01-30 13:10:00,16.9,10.6,29.98,NW,321,12.0,12.0,76,0.00,,,0.00,Wunderground v.1.15,2013-01-30 19:10:00,
2013-01-30 13:20:00,17.1,11.1,29.98,NW,319,9.0,9.0,77,0.00,,,0.00,Wunderground v.1.15,2013-01-30 19:20:00,
2013-01-30 13:30:00,18.4,12.4,29.97,NW,309,9.0,10.0,77,0.00,,,0.00,Wunderground v.1.15,2013-01-30 19:30:00,
2013-01-30 13:35:00,18.0,11.7,29.97,NW,309,10.0,10.0,76,0.00,,,0.00,Wunderground v.1.15,2013-01-30 19:35:00,
2013-01-30 13:45:00,18.1,11.8,29.97,NW,310,12.0,20.0,76,0.00,,,0.00,Wunderground v.1.15,2013-01-30 19:45:00,
2013-01-30 13:55:00,18.5,12.5,29.97,WNW,298,11.0,15.0,77,0.00,,,0.00,Wunderground v.1.15,2013-01-30 19:55:00,
2013-01-30 14:00:00,18.9,12.9,29.97,North,9,10.0,10.0,77,0.00,,,0.00,Wunderground v.1.15,2013-01-30 20:00:00,
2013-01-30 14:10:00,18.6,12.3,29.97,WNW,303,11.0,20.0,76,0.00,,,0.00,Wunderground v.1.15,2013-01-30 20:10:00,
2013-01-30 14:20:00,18.8,12.8,29.97,WNW,302,12.0,20.0,77,0.00,,,0.00,Wunderground v.1.15,2013-01-30 20:20:00,
2013-01-30 14:30:00,19.0,12.7,29.96,North,355,10.0,10.0,76,0.00,,,0.00,Wunderground v.1.15,2013-01-30 20:30:00,
2013-01-30 14:40:00,18.5,12.2,29.96,NNW,331,9.0,20.0,76,0.00,,,0.00,Wunderground v.1.15,2013-01-30 20:40:00,
2013-01-30 14:50:00,19.1,12.8,29.96,NNW,329,8.0,8.0,76,0.00,,,0.00,Wunderground v.1.15,2013-01-30 20:50:00,
2013-01-30 14:55:00,19.7,13.1,29.96,NNW,342,9.0,9.0,75,0.00,,,0.00,Wunderground v.1.15,2013-01-30 20:55:00,
2013-01-30 15:00:00,19.6,12.7,29.96,NW,316,9.0,9.0,74,0.00,,,0.00,Wunderground v.1.15,2013-01-30 21:00:00,
2013-01-30 15:10:00,19.6,12.3,29.96,NW,311,9.0,20.0,73,0.00,,,0.00,Wunderground v.1.15,2013-01-30 21:10:00,
2013-01-30 15:20:00,20.2,12.9,29.96,NW,319,8.0,20.0,73,0.00,,,0.00,Wunderground v.1.15,2013-01-30 21:20:00,
2013-01-30 15:30:00,19.2,11.6,29.96,NNW,328,8.0,8.0,72,0.00,,,0.00,Wunderground v.1.15,2013-01-30 21:30:00,
2013-01-30 15:35:00,19.6,12.3,29.97,WNW,301,10.0,14.0,73,0.00,,,0.00,Wunderground v.1.15,2013-01-30 21:35:00,
2013-01-30 15:45:00,20.1,12.5,29.96,NNE,17,8.0,20.0,72,0.00,,,0.00,Wunderground v.1.15,2013-01-30 21:45:00,
2013-01-30 15:50:00,19.8,12.2,29.96,NW,313,8.0,8.0,72,0.00,,,0.00,Wunderground v.1.15,2013-01-30 21:50:00,
2013-01-30 16:00:00,19.7,12.1,29.97,NNW,342,7.0,7.0,72,0.00,,,0.00,Wunderground v.1.15,2013-01-30 22:00:00,
2013-01-30 16:10:00,19.8,12.5,29.97,North,360,7.0,20.0,73,0.00,,,0.00,Wunderground v.1.15,2013-01-30 22:10:00,
2013-01-30 16:20:00,19.5,11.9,29.97,NW,304,7.0,20.0,72,0.00,,,0.00,Wunderground v.1.15,2013-01-30 22:20:00,
2013-01-30 16:30:00,19.3,11.7,29.98,NW,304,7.0,20.0,72,0.00,,,0.00,Wunderground v.1.15,2013-01-30 22:30:00,
2013-01-30 16:40:00,18.7,11.2,29.97,NNW,330,7.0,20.0,72,0.00,,,0.00,Wunderground v.1.15,2013-01-30 22:40:00,
2013-01-30 16:45:00,18.4,11.2,29.97,NNW,336,6.0,20.0,73,0.00,,,0.00,Wunderground v.1.15,2013-01-30 22:45:00,
2013-01-30 16:50:00,18.0,10.5,29.98,NNW,327,7.0,7.0,72,0.00,,,0.00,Wunderground v.1.15,2013-01-30 22:50:00,
2013-01-30 17:00:00,17.7,10.8,29.98,NW,317,6.0,6.0,74,0.00,,,0.00,Wunderground v.1.15,2013-01-30 23:00:00,
2013-01-30 17:10:00,18.0,11.1,29.99,NNW,340,7.0,7.0,74,0.00,,,0.00,Wunderground v.1.15,2013-01-30 23:10:00,
2013-01-30 17:20:00,17.5,10.6,29.99,NNW,348,6.0,6.0,74,0.00,,,0.00,Wunderground v.1.15,2013-01-30 23:20:00,
2013-01-30 17:30:00,16.8,9.9,29.99,NNW,346,6.0,20.0,74,0.00,,,0.00,Wunderground v.1.15,2013-01-30 23:30:00,
2013-01-30 17:35:00,16.6,10.1,29.99,NNW,344,5.0,20.0,75,0.00,,,0.00,Wunderground v.1.15,2013-01-30 23:35:00,
2013-01-30 17:45:00,16.1,9.6,29.99,North,355,5.0,20.0,75,0.00,,,0.00,Wunderground v.1.15,2013-01-30 23:45:00,
2013-01-30 17:50:00,15.7,9.5,29.99,North,355,5.0,5.0,76,0.00,,,0.00,Wunderground v.1.15,2013-01-30 23:50:00,
2013-01-30 18:00:00,15.3,9.1,29.99,North,355,4.0,6.0,76,0.00,,,0.00,Wunderground v.1.15,2013-01-31 00:00:00,
2013-01-30 18:05:00,15.2,9.3,30.00,North,355,4.0,6.0,77,0.00,,,0.00,Wunderground v.1.15,2013-01-31 00:05:00,
2013-01-30 18:10:00,15.2,9.3,30.00,North,355,5.0,5.0,77,0.00,,,0.00,Wunderground v.1.15,2013-01-31 00:10:00,
2013-01-30 18:20:00,15.2,9.3,30.00,North,351,6.0,6.0,77,0.00,,,0.00,Wunderground v.1.15,2013-01-31 00:20:00,
2013-01-30 18:30:00,15.1,9.2,30.00,North,355,6.0,7.0,77,0.00,,,0.00,Wunderground v.1.15,2013-01-31 00:30:00,
2013-01-30 18:40:00,14.8,8.6,30.00,North,351,5.0,6.0,76,0.00,,,0.00,Wunderground v.1.15,2013-01-31 00:40:00,
2013-01-30 18:50:00,14.3,8.1,30.00,North,355,5.0,5.0,76,0.00,,,0.00,Wunderground v.1.15,2013-01-31 00:50:00,
2013-01-30 18:55:00,13.9,8.0,30.00,North,355,5.0,5.0,77,0.00,,,0.00,Wunderground v.1.15,2013-01-31 00:55:00,
2013-01-30 19:00:00,13.7,7.8,30.00,North,355,4.0,5.0,77,0.00,,,0.00,Wunderground v.1.15,2013-01-31 01:00:00,
2013-01-30 19:20:00,12.7,7.1,30.00,North,360,4.0,4.0,78,0.00,,,0.00,Wunderground v.1.15,2013-01-31 01:20:00,
2013-01-30 19:30:00,12.3,6.7,30.00,North,360,4.0,4.0,78,0.00,,,0.00,Wunderground v.1.15,2013-01-31 01:30:00,
2013-01-30 19:40:00,11.9,6.6,30.00,North,355,3.0,3.0,79,0.00,,,0.00,Wunderground v.1.15,2013-01-31 01:40:00,
2013-01-30 19:45:00,11.7,6.4,30.00,North,355,3.0,5.0,79,0.00,,,0.00,Wunderground v.1.15,2013-01-31 01:45:00,
2013-01-30 19:50:00,11.6,6.3,30.00,North,355,4.0,5.0,79,0.00,,,0.00,Wunderground v.1.15,2013-01-31 01:50:00,
2013-01-30 20:00:00,11.5,6.2,30.01,NNW,348,3.0,5.0,79,0.00,,,0.00,Wunderground v.1.15,2013-01-31 02:00:00,
2013-01-30 20:10:00,11.2,5.7,30.01,NNW,343,3.0,3.0,78,0.00,,,0.00,Wunderground v.1.15,2013-01-31 02:10:00,
2013-01-30 20:20:00,11.0,5.5,30.01,NNW,343,3.0,9.0,78,0.00,,,0.00,Wunderground v.1.15,2013-01-31 02:20:00,
2013-01-30 20:30:00,10.5,5.0,30.00,NNW,343,2.0,2.0,78,0.00,,,0.00,Wunderground v.1.15,2013-01-31 02:30:00,
2013-01-30 20:40:00,10.1,4.9,30.00,NNW,343,1.0,9.0,79,0.00,,,0.00,Wunderground v.1.15,2013-01-31 02:40:00,
2013-01-30 20:45:00,10.0,4.8,30.00,NNW,343,1.0,9.0,79,0.00,,,0.00,Wunderground v.1.15,2013-01-31 02:45:00,
2013-01-30 20:55:00,9.6,4.4,30.01,NNW,343,1.0,9.0,79,0.00,,,0.00,Wunderground v.1.15,2013-01-31 02:55:00,
2013-01-30 21:00:00,9.4,4.2,30.02,NNW,343,1.0,1.0,79,0.00,,,0.00,Wunderground v.1.15,2013-01-31 03:00:00,
2013-01-30 21:10:00,9.5,4.6,30.02,NNW,342,3.0,3.0,80,0.00,,,0.00,Wunderground v.1.15,2013-01-31 03:10:00,
2013-01-30 21:20:00,9.1,4.2,30.03,NNW,341,2.0,9.0,80,0.00,,,0.00,Wunderground v.1.15,2013-01-31 03:20:00,
2013-01-30 21:30:00,8.9,4.0,30.04,NNW,340,2.0,9.0,80,0.00,,,0.00,Wunderground v.1.15,2013-01-31 03:30:00,
2013-01-30 21:40:00,8.7,3.8,30.04,NNW,339,2.0,9.0,80,0.00,,,0.00,Wunderground v.1.15,2013-01-31 03:40:00,
2013-01-30 21:45:00,8.5,3.6,30.04,NNW,339,3.0,9.0,80,0.00,,,0.00,Wunderground v.1.15,2013-01-31 03:45:00,
2013-01-30 21:50:00,8.3,3.7,30.05,NNW,338,3.0,9.0,81,0.00,,,0.00,Wunderground v.1.15,2013-01-31 03:50:00,
2013-01-30 22:00:00,8.0,3.1,30.05,NNW,338,2.0,2.0,80,0.00,,,0.00,Wunderground v.1.15,2013-01-31 04:00:00,
2013-01-30 22:10:00,7.9,3.3,30.05,NNW,338,2.0,9.0,81,0.00,,,0.00,Wunderground v.1.15,2013-01-31 04:10:00,
2013-01-30 22:20:00,7.5,2.9,30.05,NNW,338,2.0,2.0,81,0.00,,,0.00,Wunderground v.1.15,2013-01-31 04:20:00,
2013-01-30 22:30:00,7.5,2.9,30.05,NNW,338,2.0,9.0,81,0.00,,,0.00,Wunderground v.1.15,2013-01-31 04:30:00,
2013-01-30 22:35:00,7.5,2.9,30.05,NNW,338,2.0,9.0,81,0.00,,,0.00,Wunderground v.1.15,2013-01-31 04:35:00,
2013-01-30 22:45:00,7.5,3.2,30.06,NNW,338,2.0,4.0,82,0.00,,,0.00,Wunderground v.1.15,2013-01-31 04:45:00,
2013-01-30 22:50:00,7.6,3.3,30.05,NNW,338,2.0,9.0,82,0.00,,,0.00,Wunderground v.1.15,2013-01-31 04:50:00,
2013-01-30 23:05:00,7.7,3.4,30.06,NNW,338,3.0,4.0,82,0.00,,,0.00,Wunderground v.1.15,2013-01-31 05:05:00,
2013-01-30 23:10:00,7.8,3.4,30.07,NNW,338,3.0,3.0,82,0.00,,,0.00,Wunderground v.1.15,2013-01-31 05:10:00,
2013-01-30 23:15:00,7.8,3.4,30.07,NNW,338,3.0,4.0,82,0.00,,,0.00,Wunderground v.1.15,2013-01-31 05:15:00,
2013-01-30 23:20:00,7.7,3.4,30.07,NNW,338,3.0,9.0,82,0.00,,,0.00,Wunderground v.1.15,2013-01-31 05:20:00,
2013-01-30 23:25:00,7.8,3.4,30.07,NNW,338,3.0,9.0,82,0.00,,,0.00,Wunderground v.1.15,2013-01-31 05:25:00,
2013-01-30 23:30:00,7.8,3.4,30.07,NNW,338,4.0,9.0,82,0.00,,,0.00,Wunderground v.1.15,2013-01-31 05:30:00,
2013-01-30 23:35:00,7.9,3.5,30.07,NNW,337,4.0,9.0,82,0.00,,,0.00,Wunderground v.1.15,2013-01-31 05:35:00,
2013-01-30 23:45:00,8.0,3.6,30.08,NNW,344,4.0,5.0,82,0.00,,,0.00,Wunderground v.1.15,2013-01-31 05:45:00,
2013-01-30 23:50:00,7.8,3.4,30.08,NNW,344,5.0,5.0,82,0.00,,,0.00,Wunderground v.1.15,2013-01-31 05:50:00,